Location: Poznań
(52.4062°N, 16.9234°E)
Time: 23:57:54
(UTC+02:00)

ISS - Visible Passes

Search period start: 22 October 2019 00:00
Search period end: 31 October 2019 23:00
Orbit: 411 x 421 km, 51.6° (Epoch: 23 October)

Date Brightness Start Highest point End Pass type
(mag) Time Alt. Az. Time Alt. Az. Time Alt. Az.
24 Oct -0.8 06:51:23 10° S 06:53:22 15° SE 06:55:22 10° ESE visible
25 Oct -0.3 06:05:00 10° SE 06:05:03 10° SE 06:05:08 10° SE visible
26 Oct -1.7 06:49:42 10° SSW 06:52:37 27° SSE 06:55:33 10° E visible
27 Oct -1.3 05:01:39 10° SSW 05:04:12 20° SE 05:06:44 10° E visible
28 Oct -1.1 04:14:47 13° SSE 04:15:48 14° SE 04:17:40 10° ESE visible
28 Oct -2.8 05:48:43 10° SW 05:51:58 47° SSE 05:55:13 10° E visible
29 Oct -2.4 05:01:27 18° SSW 05:03:27 35° SSE 05:06:34 10° E visible
30 Oct -2.0 04:15:04 26° SE 04:15:04 26° SE 04:17:50 10° E visible
30 Oct -3.5 05:48:01 10° WSW 05:51:23 68° SSE 05:54:44 10° E visible
31 Oct -0.5 03:28:35 12° ESE 03:28:35 12° ESE 03:28:58 10° E visible
31 Oct -3.4 05:01:29 32° SW 05:02:47 57° SSE 05:06:07 10° E visible
